DLH101 GMMN-EDDF

Flight info

Callsign DLH101
Flight time 3h 8m
Altitude 36000
Route TOLSI UG5 KORIS L27 MAR DCT ALCOL N871 PALIO/N0439F380 N871 TOPTU DCT TOU DCT GAI DCT MEN DCT NINUN DCT LATAM DCT ETREK DCT LTP DCT SOPLO DCT OMASI DCT KINNI DCT SOSAL DCT KORED DCT BERSU N871 DITON/N0434F370 DCT LADOL/N0438F380 T163 EMPAX EMPAX5A
Aircraft A320/M-SDE2E3FGIJ1LORWXYZ/HB1

Departure

Time 2026-05-07 17:21
Airport Mohammed V International Airport (GMMN)

Arrival

Time 2026-05-07 20:29
Airport Frankfurt Main Airport (EDDF)
Time Latitude Longitude Altitude Speed Heading
2026-05-07 16:34 33.37391 -7.58252 656 ft 0 kts 65°
2026-05-07 16:55 33.37390 -7.58254 653 ft 2 kts 65°
2026-05-07 16:55 33.37379 -7.58281 654 ft 4 kts 60°
2026-05-07 16:56 33.37368 -7.58309 656 ft 4 kts 89°
2026-05-07 16:56 33.37371 -7.58339 654 ft 4 kts 112°
2026-05-07 16:56 33.37398 -7.58369 656 ft 0 kts 164°
2026-05-07 16:58 33.37396 -7.58368 655 ft 2 kts 164°
2026-05-07 16:59 33.37371 -7.58360 653 ft 5 kts 164°
2026-05-07 16:59 33.37340 -7.58350 653 ft 5 kts 164°
2026-05-07 16:59 33.37286 -7.58332 653 ft 12 kts 164°
2026-05-07 16:59 33.37215 -7.58308 653 ft 10 kts 165°
2026-05-07 17:00 33.37154 -7.58288 653 ft 8 kts 165°
2026-05-07 17:00 33.37101 -7.58271 654 ft 7 kts 164°
2026-05-07 17:00 33.37059 -7.58257 653 ft 6 kts 164°
2026-05-07 17:00 33.36992 -7.58235 653 ft 12 kts 164°
2026-05-07 17:01 33.36935 -7.58269 653 ft 10 kts 253°
2026-05-07 17:01 33.36921 -7.58339 654 ft 8 kts 255°
2026-05-07 17:01 33.36905 -7.58408 653 ft 14 kts 254°
2026-05-07 17:01 33.36810 -7.58449 653 ft 17 kts 164°
2026-05-07 17:02 33.36704 -7.58413 653 ft 15 kts 164°
2026-05-07 17:02 33.36608 -7.58380 653 ft 14 kts 164°
2026-05-07 17:02 33.36522 -7.58351 653 ft 12 kts 164°
2026-05-07 17:02 33.36446 -7.58325 653 ft 11 kts 164°
2026-05-07 17:03 33.36381 -7.58303 652 ft 9 kts 164°
2026-05-07 17:03 33.36323 -7.58283 652 ft 10 kts 163°
2026-05-07 17:03 33.36219 -7.58247 655 ft 16 kts 164°
2026-05-07 17:03 33.36116 -7.58212 652 ft 15 kts 164°
2026-05-07 17:04 33.36024 -7.58180 654 ft 13 kts 164°
2026-05-07 17:04 33.35940 -7.58152 652 ft 13 kts 164°
2026-05-07 17:04 33.35837 -7.58117 652 ft 16 kts 164°
2026-05-07 17:04 33.35738 -7.58083 654 ft 14 kts 163°
2026-05-07 17:05 33.35654 -7.58054 652 ft 12 kts 164°
2026-05-07 17:05 33.35590 -7.58032 652 ft 7 kts 164°
2026-05-07 17:05 33.35547 -7.58017 654 ft 6 kts 164°
2026-05-07 17:05 33.35515 -7.58007 652 ft 3 kts 164°
2026-05-07 17:06 33.35496 -7.58000 652 ft 2 kts 164°
2026-05-07 17:06 33.35476 -7.57994 654 ft 4 kts 164°
2026-05-07 17:06 33.35457 -7.57987 652 ft 3 kts 163°
2026-05-07 17:06 33.35432 -7.57978 652 ft 3 kts 163°
2026-05-07 17:07 33.35431 -7.57978 652 ft 0 kts 163°
2026-05-07 17:08 33.35429 -7.57977 652 ft 2 kts 163°
2026-05-07 17:08 33.35370 -7.57956 652 ft 12 kts 163°
2026-05-07 17:08 33.35333 -7.57946 654 ft 0 kts 172°
2026-05-07 17:10 33.35331 -7.57945 654 ft 0 kts 173°
2026-05-07 17:10 33.35324 -7.57944 653 ft 3 kts 174°
2026-05-07 17:10 33.35296 -7.57947 653 ft 6 kts 192°
2026-05-07 17:11 33.35273 -7.57967 653 ft 0 kts 234°
2026-05-07 17:15 33.35270 -7.57971 653 ft 3 kts 234°
2026-05-07 17:15 33.35257 -7.57996 653 ft 3 kts 242°
2026-05-07 17:15 33.35242 -7.58055 653 ft 8 kts 255°
2026-05-07 17:15 33.35238 -7.58074 653 ft 1 kts 255°
2026-05-07 17:16 33.35234 -7.58091 653 ft 0 kts 253°
2026-05-07 17:18 33.35225 -7.58128 654 ft 7 kts 253°
2026-05-07 17:19 33.35214 -7.58172 654 ft 4 kts 255°
2026-05-07 17:19 33.35216 -7.58231 654 ft 13 kts 286°
2026-05-07 17:19 33.35277 -7.58281 654 ft 0 kts 343°
2026-05-07 17:20 33.35281 -7.58282 654 ft 3 kts 343°
2026-05-07 17:20 33.35475 -7.58349 648 ft 65 kts 345°
2026-05-07 17:21 33.36112 -7.58568 647 ft 123 kts 344°
2026-05-07 17:21 33.37080 -7.58900 670 ft 164 kts 346°
2026-05-07 17:21 33.38184 -7.59291 1300 ft 166 kts 345°
2026-05-07 17:21 33.39286 -7.59688 2009 ft 167 kts 346°
2026-05-07 17:22 33.40481 -7.59943 2353 ft 184 kts 358°
2026-05-07 17:22 33.41807 -7.59608 2599 ft 209 kts 20°
2026-05-07 17:22 33.43241 -7.58940 2996 ft 234 kts 20°
2026-05-07 17:22 33.44799 -7.58190 3640 ft 247 kts 21°
2026-05-07 17:23 33.46429 -7.57397 4335 ft 260 kts 20°
2026-05-07 17:23 33.48144 -7.56560 5064 ft 270 kts 21°
2026-05-07 17:23 33.49909 -7.55697 5869 ft 278 kts 22°
2026-05-07 17:23 33.51721 -7.54812 6635 ft 285 kts 21°
2026-05-07 17:24 33.53593 -7.53904 7349 ft 294 kts 21°
2026-05-07 17:24 33.55504 -7.52976 8161 ft 298 kts 21°
2026-05-07 17:24 33.57449 -7.52032 8930 ft 304 kts 21°
2026-05-07 17:24 33.59423 -7.51072 9733 ft 309 kts 21°
2026-05-07 17:25 33.61455 -7.50085 10253 ft 324 kts 21°
2026-05-07 17:25 33.63622 -7.49032 10506 ft 347 kts 21°
2026-05-07 17:25 33.65900 -7.47924 11046 ft 358 kts 21°
2026-05-07 17:25 33.68226 -7.46790 11718 ft 363 kts 21°
2026-05-07 17:26 33.70585 -7.45639 12426 ft 368 kts 21°
2026-05-07 17:26 33.72972 -7.44476 13126 ft 373 kts 21°
2026-05-07 17:26 33.75387 -7.43297 13840 ft 376 kts 21°
2026-05-07 17:26 33.77822 -7.42107 14453 ft 380 kts 20°
2026-05-07 17:27 33.80284 -7.40906 14820 ft 383 kts 20°
2026-05-07 17:27 33.82755 -7.39699 14931 ft 383 kts 20°
2026-05-07 17:27 33.85230 -7.38489 15140 ft 387 kts 20°
2026-05-07 17:27 33.87731 -7.37267 15803 ft 389 kts 20°
2026-05-07 17:28 33.90244 -7.36035 16443 ft 392 kts 19°
2026-05-07 17:28 33.92785 -7.34788 17063 ft 396 kts 19°
2026-05-07 17:28 33.95349 -7.33526 17655 ft 400 kts 19°
2026-05-07 17:28 33.97935 -7.32255 18236 ft 404 kts 19°
2026-05-07 17:29 34.00548 -7.30971 18765 ft 407 kts 19°
2026-05-07 17:29 34.03184 -7.29673 19270 ft 411 kts 19°
2026-05-07 17:29 34.05840 -7.28365 19766 ft 415 kts 18°
2026-05-07 17:29 34.08524 -7.27047 20261 ft 418 kts 18°
2026-05-07 17:30 34.11227 -7.25720 20759 ft 422 kts 18°
2026-05-07 17:30 34.13958 -7.24376 21228 ft 425 kts 18°
2026-05-07 17:30 34.16704 -7.23020 21702 ft 429 kts 18°
2026-05-07 17:30 34.19479 -7.21650 22155 ft 432 kts 18°
2026-05-07 17:31 34.22260 -7.20276 22623 ft 435 kts 18°
2026-05-07 17:31 34.25088 -7.18875 23089 ft 439 kts 18°
2026-05-07 17:31 34.27923 -7.17472 23557 ft 442 kts 18°
2026-05-07 17:31 34.30780 -7.16059 23938 ft 445 kts 18°
2026-05-07 17:32 34.33647 -7.14640 24338 ft 447 kts 18°
2026-05-07 17:32 34.36534 -7.13209 24728 ft 449 kts 18°
2026-05-07 17:32 34.39430 -7.11772 25117 ft 451 kts 18°
2026-05-07 17:32 34.42340 -7.10323 25497 ft 453 kts 18°
2026-05-07 17:33 34.45223 -7.08887 25866 ft 455 kts 18°
2026-05-07 17:33 34.48160 -7.07429 26242 ft 457 kts 18°
2026-05-07 17:33 34.51110 -7.05967 26614 ft 459 kts 18°
2026-05-07 17:33 34.54076 -7.04497 26995 ft 461 kts 18°
2026-05-07 17:34 34.57051 -7.03019 27359 ft 463 kts 18°
2026-05-07 17:34 34.60037 -7.01522 27717 ft 466 kts 19°
2026-05-07 17:34 34.63002 -6.99906 28073 ft 469 kts 21°
2026-05-07 17:34 34.65944 -6.98149 28420 ft 472 kts 22°
2026-05-07 17:35 34.68858 -6.96312 28764 ft 475 kts 24°
2026-05-07 17:35 34.71799 -6.94422 29089 ft 477 kts 24°
2026-05-07 17:35 34.74744 -6.92535 29420 ft 479 kts 23°
2026-05-07 17:35 34.77708 -6.90660 29750 ft 481 kts 23°
2026-05-07 17:36 34.80696 -6.88803 30083 ft 483 kts 22°
2026-05-07 17:36 34.83704 -6.86957 30343 ft 485 kts 22°
2026-05-07 17:36 34.86725 -6.85113 30603 ft 487 kts 22°
2026-05-07 17:36 34.89755 -6.83266 30869 ft 487 kts 22°
2026-05-07 17:37 34.92788 -6.81410 31166 ft 488 kts 22°
2026-05-07 17:37 34.95821 -6.79545 31486 ft 488 kts 22°
2026-05-07 17:37 34.98842 -6.77678 31855 ft 486 kts 21°
2026-05-07 17:37 35.01855 -6.75811 32222 ft 485 kts 21°
2026-05-07 17:38 35.04863 -6.73947 32573 ft 484 kts 21°
2026-05-07 17:38 35.07865 -6.72085 32947 ft 484 kts 21°
2026-05-07 17:38 35.10866 -6.70226 33283 ft 483 kts 21°
2026-05-07 17:38 35.13861 -6.68369 33616 ft 483 kts 21°
2026-05-07 17:39 35.16851 -6.66513 33967 ft 482 kts 21°
2026-05-07 17:39 35.19837 -6.64661 34276 ft 481 kts 21°
2026-05-07 17:39 35.22817 -6.62809 34559 ft 480 kts 21°
2026-05-07 17:39 35.25792 -6.60956 34839 ft 479 kts 21°
2026-05-07 17:40 35.28762 -6.59102 35108 ft 479 kts 20°
2026-05-07 17:40 35.31731 -6.57249 35363 ft 479 kts 20°
2026-05-07 17:40 35.34693 -6.55397 35629 ft 478 kts 20°
2026-05-07 17:40 35.37657 -6.53544 35852 ft 478 kts 20°
2026-05-07 17:41 35.43580 -6.49846 35934 ft 478 kts 20°
2026-05-07 17:41 35.49487 -6.46097 35933 ft 478 kts 21°
2026-05-07 17:42 35.55337 -6.42255 35936 ft 477 kts 21°
2026-05-07 17:42 35.61180 -6.38395 35929 ft 477 kts 21°
2026-05-07 17:43 35.67037 -6.34557 35931 ft 477 kts 21°
2026-05-07 17:43 35.72895 -6.30726 35927 ft 477 kts 21°
2026-05-07 17:44 35.78756 -6.26900 35928 ft 477 kts 21°
2026-05-07 17:44 35.84608 -6.23084 35930 ft 477 kts 21°
2026-05-07 17:45 35.90448 -6.19308 35945 ft 476 kts 20°
2026-05-07 17:45 35.96324 -6.15522 35945 ft 476 kts 20°
2026-05-07 17:46 36.02195 -6.11723 35945 ft 476 kts 20°
2026-05-07 17:46 36.08063 -6.07913 35940 ft 475 kts 21°
2026-05-07 17:47 36.13906 -6.04108 35937 ft 474 kts 20°
2026-05-07 17:47 36.19740 -6.00299 35939 ft 474 kts 20°
2026-05-07 17:48 36.25300 -5.95773 35938 ft 487 kts 36°
2026-05-07 17:48 36.30126 -5.89802 35936 ft 490 kts 40°
2026-05-07 17:49 36.34926 -5.83793 35934 ft 490 kts 40°
2026-05-07 17:49 36.39728 -5.77778 35927 ft 491 kts 40°
2026-05-07 17:50 36.44530 -5.71737 35929 ft 492 kts 40°
2026-05-07 17:50 36.49316 -5.65686 35929 ft 490 kts 40°
2026-05-07 17:51 36.54097 -5.59656 35927 ft 489 kts 39°
2026-05-07 17:51 36.58879 -5.53626 35929 ft 490 kts 40°
2026-05-07 17:52 36.63654 -5.47569 35931 ft 490 kts 40°
2026-05-07 17:52 36.68427 -5.41505 35924 ft 490 kts 40°
2026-05-07 17:53 36.73199 -5.35436 35924 ft 490 kts 40°
2026-05-07 17:53 36.77971 -5.29361 35917 ft 490 kts 40°
2026-05-07 17:54 36.81922 -5.24309 35918 ft 489 kts 40°
2026-05-07 17:54 36.86679 -5.18227 35918 ft 490 kts 40°
2026-05-07 17:55 36.91435 -5.12133 35911 ft 490 kts 40°
2026-05-07 17:55 36.96188 -5.06028 35908 ft 490 kts 40°
2026-05-07 17:56 37.00934 -4.99918 35908 ft 490 kts 40°
2026-05-07 17:56 37.05986 -4.94351 35905 ft 477 kts 26°
2026-05-07 17:57 37.11805 -4.90724 35906 ft 463 kts 14°
2026-05-07 17:57 37.17730 -4.87657 35898 ft 464 kts 14°
2026-05-07 17:58 37.23695 -4.84542 35901 ft 464 kts 14°
2026-05-07 17:58 37.29656 -4.81406 35907 ft 464 kts 14°
2026-05-07 17:59 37.35615 -4.78270 35893 ft 464 kts 14°
2026-05-07 17:59 37.41578 -4.75149 35893 ft 464 kts 14°
2026-05-07 18:00 37.47526 -4.72037 35893 ft 464 kts 14°
2026-05-07 18:00 37.53489 -4.68906 35885 ft 464 kts 14°
2026-05-07 18:01 37.59438 -4.65765 35881 ft 463 kts 14°
2026-05-07 18:01 37.65386 -4.62614 35874 ft 463 kts 14°
2026-05-07 18:02 37.74305 -4.57891 35870 ft 464 kts 14°
2026-05-07 18:03 37.80243 -4.54729 35875 ft 462 kts 14°
2026-05-07 18:03 37.86171 -4.51576 35872 ft 462 kts 14°
2026-05-07 18:04 37.92092 -4.48422 35877 ft 461 kts 14°
2026-05-07 18:04 37.98002 -4.45268 35861 ft 461 kts 14°
2026-05-07 18:05 38.03913 -4.42112 35879 ft 461 kts 14°
2026-05-07 18:05 38.09824 -4.38949 35865 ft 461 kts 14°
2026-05-07 18:06 38.15725 -4.35782 35875 ft 460 kts 14°
2026-05-07 18:06 38.21617 -4.32612 35875 ft 459 kts 14°
2026-05-07 18:07 38.27503 -4.29441 35878 ft 459 kts 14°
2026-05-07 18:07 38.33392 -4.26266 35882 ft 459 kts 14°
2026-05-07 18:08 38.39277 -4.23083 35883 ft 460 kts 14°
2026-05-07 18:08 38.45165 -4.19894 35884 ft 460 kts 14°
2026-05-07 18:09 38.51048 -4.16706 35879 ft 459 kts 14°
2026-05-07 18:09 38.56931 -4.13514 35882 ft 460 kts 14°
2026-05-07 18:10 38.62812 -4.10314 35880 ft 458 kts 14°
2026-05-07 18:10 38.68639 -4.07135 35884 ft 458 kts 14°
2026-05-07 18:11 38.74508 -4.03928 35886 ft 458 kts 14°
2026-05-07 18:11 38.80375 -4.00727 35885 ft 458 kts 14°
2026-05-07 18:12 38.86238 -3.97518 35881 ft 458 kts 14°
2026-05-07 18:12 38.92090 -3.94302 35887 ft 457 kts 14°
2026-05-07 18:13 38.97942 -3.91084 35894 ft 457 kts 14°
2026-05-07 18:13 39.03791 -3.87860 35893 ft 457 kts 14°
2026-05-07 18:14 39.09629 -3.84636 35886 ft 455 kts 14°
2026-05-07 18:14 39.15450 -3.81418 35912 ft 455 kts 14°
2026-05-07 18:15 39.21258 -3.78200 35908 ft 454 kts 14°
2026-05-07 18:15 39.27059 -3.74983 35911 ft 454 kts 14°
2026-05-07 18:16 39.32865 -3.71760 35898 ft 454 kts 14°
2026-05-07 18:16 39.38664 -3.68524 35915 ft 454 kts 14°
2026-05-07 18:17 39.44468 -3.65292 35929 ft 454 kts 14°
2026-05-07 18:17 39.50273 -3.62057 35918 ft 454 kts 14°
2026-05-07 18:18 39.56071 -3.58807 35916 ft 454 kts 14°
2026-05-07 18:18 39.61862 -3.55551 35917 ft 453 kts 14°
2026-05-07 18:19 39.67651 -3.52302 35917 ft 453 kts 14°
2026-05-07 18:19 39.73440 -3.49031 35929 ft 454 kts 14°
2026-05-07 18:20 39.79157 -3.45486 35925 ft 463 kts 24°
2026-05-07 18:20 39.84562 -3.40876 35926 ft 464 kts 25°
2026-05-07 18:21 39.89947 -3.36235 35927 ft 464 kts 25°
2026-05-07 18:21 39.95325 -3.31591 35941 ft 464 kts 25°
2026-05-07 18:22 40.00708 -3.26958 35934 ft 462 kts 25°
2026-05-07 18:22 40.06060 -3.22348 35933 ft 461 kts 25°
2026-05-07 18:23 40.11403 -3.17723 35941 ft 461 kts 25°
2026-05-07 18:23 40.16707 -3.13119 35936 ft 461 kts 25°
2026-05-07 18:24 40.22041 -3.08475 35957 ft 460 kts 25°
2026-05-07 18:24 40.27367 -3.03841 35945 ft 459 kts 26°
2026-05-07 18:25 40.32667 -2.99216 35938 ft 457 kts 26°
2026-05-07 18:25 40.37962 -2.94600 35937 ft 457 kts 26°
2026-05-07 18:26 40.43253 -2.89967 35944 ft 457 kts 26°
2026-05-07 18:26 40.48537 -2.85323 35941 ft 457 kts 26°
2026-05-07 18:27 40.53819 -2.80680 35944 ft 457 kts 26°
2026-05-07 18:27 40.59100 -2.76024 35945 ft 457 kts 26°
2026-05-07 18:28 40.64378 -2.71358 35948 ft 457 kts 26°
2026-05-07 18:28 40.69652 -2.66690 35960 ft 457 kts 27°
2026-05-07 18:29 40.74942 -2.62017 35948 ft 458 kts 27°
2026-05-07 18:29 40.80233 -2.57331 35956 ft 458 kts 27°
2026-05-07 18:30 40.85520 -2.52627 35955 ft 458 kts 27°
2026-05-07 18:30 40.90804 -2.47911 35953 ft 459 kts 28°
2026-05-07 18:31 40.96095 -2.43185 35957 ft 459 kts 28°
2026-05-07 18:31 41.01385 -2.38453 35956 ft 459 kts 28°
2026-05-07 18:32 41.06550 -2.33426 35957 ft 462 kts 32°
2026-05-07 18:32 41.11530 -2.28003 35987 ft 464 kts 35°
2026-05-07 18:33 41.16512 -2.22517 35966 ft 466 kts 34°
2026-05-07 18:33 41.21552 -2.17109 35965 ft 465 kts 34°
2026-05-07 18:34 41.26580 -2.11786 35969 ft 465 kts 34°
2026-05-07 18:34 41.31638 -2.06410 35970 ft 466 kts 34°
2026-05-07 18:35 41.36685 -2.01004 35964 ft 466 kts 34°
2026-05-07 18:35 41.41725 -1.95579 35966 ft 466 kts 34°
2026-05-07 18:36 41.46765 -1.90152 35966 ft 466 kts 35°
2026-05-07 18:36 41.51814 -1.84711 35966 ft 467 kts 35°
2026-05-07 18:37 41.56864 -1.79257 35970 ft 467 kts 36°
2026-05-07 18:37 41.61911 -1.73790 35965 ft 467 kts 36°
2026-05-07 18:38 41.66951 -1.68313 35967 ft 467 kts 36°
2026-05-07 18:38 41.71991 -1.62837 35961 ft 467 kts 36°
2026-05-07 18:39 41.77030 -1.57340 35976 ft 467 kts 36°
2026-05-07 18:39 41.82069 -1.51842 35951 ft 467 kts 37°
2026-05-07 18:40 41.86263 -1.47259 35948 ft 468 kts 37°
2026-05-07 18:40 41.91308 -1.41722 35957 ft 468 kts 37°
2026-05-07 18:41 41.96351 -1.36180 35956 ft 468 kts 37°
2026-05-07 18:41 42.01398 -1.30637 35959 ft 468 kts 37°
2026-05-07 18:42 42.06437 -1.25086 35953 ft 468 kts 37°
2026-05-07 18:42 42.11471 -1.19514 35954 ft 468 kts 37°
2026-05-07 18:43 42.16502 -1.13940 35945 ft 468 kts 38°
2026-05-07 18:43 42.21539 -1.08356 35952 ft 469 kts 38°
2026-05-07 18:44 42.26575 -1.02755 35957 ft 469 kts 38°
2026-05-07 18:44 42.31604 -0.97136 35959 ft 469 kts 38°
2026-05-07 18:45 42.36632 -0.91512 35966 ft 469 kts 38°
2026-05-07 18:45 42.41650 -0.85869 35972 ft 469 kts 41°
2026-05-07 18:46 42.45931 -0.79202 35968 ft 470 kts 52°
2026-05-07 18:46 42.49890 -0.72227 35978 ft 471 kts 52°
2026-05-07 18:47 42.53887 -0.65194 35978 ft 471 kts 52°
2026-05-07 18:47 42.57877 -0.58151 35989 ft 471 kts 52°
2026-05-07 18:48 42.61859 -0.51094 35995 ft 471 kts 52°
2026-05-07 18:48 42.65832 -0.44041 35986 ft 470 kts 52°
2026-05-07 18:49 42.69799 -0.36985 35982 ft 470 kts 52°
2026-05-07 18:49 42.73761 -0.29924 35989 ft 470 kts 52°
2026-05-07 18:50 42.77721 -0.22847 35984 ft 470 kts 52°
2026-05-07 18:50 42.81700 -0.15798 35981 ft 469 kts 51°
2026-05-07 18:51 42.85843 -0.08919 35987 ft 470 kts 50°
2026-05-07 18:51 42.90042 -0.02096 35969 ft 470 kts 50°
2026-05-07 18:52 42.94201 0.04778 35970 ft 470 kts 51°
2026-05-07 18:52 42.98321 0.11697 35971 ft 470 kts 51°
2026-05-07 18:53 43.02437 0.18634 35975 ft 470 kts 51°
2026-05-07 18:53 43.06551 0.25558 35963 ft 469 kts 51°
2026-05-07 18:54 43.10673 0.32489 35953 ft 469 kts 51°
2026-05-07 18:54 43.14787 0.39429 35943 ft 469 kts 51°
2026-05-07 18:55 43.18899 0.46386 35943 ft 470 kts 51°
2026-05-07 18:55 43.22984 0.53306 35964 ft 470 kts 51°
2026-05-07 18:56 43.27080 0.60278 35944 ft 469 kts 51°
2026-05-07 18:56 43.31167 0.67253 35940 ft 469 kts 51°
2026-05-07 18:57 43.35256 0.74235 35943 ft 469 kts 51°
2026-05-07 18:57 43.39338 0.81229 35941 ft 470 kts 51°
2026-05-07 18:58 43.43422 0.88251 35947 ft 470 kts 51°
2026-05-07 18:58 43.47496 0.95278 35944 ft 469 kts 51°
2026-05-07 18:59 43.51570 1.02305 35940 ft 469 kts 51°
2026-05-07 18:59 43.55642 1.09340 35939 ft 469 kts 51°
2026-05-07 19:00 43.59708 1.16382 35935 ft 470 kts 51°
2026-05-07 19:00 43.63770 1.23453 35940 ft 470 kts 52°
2026-05-07 19:01 43.67823 1.30522 35948 ft 469 kts 52°
2026-05-07 19:01 43.71785 1.37685 35946 ft 469 kts 54°
2026-05-07 19:02 43.75622 1.44979 35949 ft 469 kts 54°
2026-05-07 19:02 43.79449 1.52289 35947 ft 469 kts 54°
2026-05-07 19:03 43.83318 1.59576 35938 ft 470 kts 53°
2026-05-07 19:03 43.87171 1.66797 35954 ft 469 kts 54°
2026-05-07 19:04 43.91032 1.74095 35941 ft 469 kts 54°
2026-05-07 19:04 43.94879 1.81399 35942 ft 469 kts 54°
2026-05-07 19:05 43.98664 1.88779 35959 ft 469 kts 55°
2026-05-07 19:05 44.02359 1.96261 35960 ft 470 kts 56°
2026-05-07 19:06 44.06051 2.03760 35957 ft 470 kts 56°
2026-05-07 19:06 44.11611 2.14985 35968 ft 470 kts 56°
2026-05-07 19:07 44.15322 2.22475 35969 ft 470 kts 56°
2026-05-07 19:07 44.19015 2.29978 35954 ft 470 kts 56°
2026-05-07 19:08 44.22708 2.37509 35968 ft 471 kts 56°
2026-05-07 19:08 44.26402 2.45043 35971 ft 471 kts 56°
2026-05-07 19:09 44.30099 2.52586 35973 ft 470 kts 56°
2026-05-07 19:09 44.33776 2.60134 35976 ft 470 kts 56°
2026-05-07 19:10 44.37447 2.67702 35960 ft 470 kts 56°
2026-05-07 19:10 44.41133 2.75285 35976 ft 472 kts 56°
2026-05-07 19:11 44.44796 2.82836 35981 ft 472 kts 56°
2026-05-07 19:11 44.48472 2.90448 35981 ft 472 kts 56°
2026-05-07 19:12 44.52137 2.98069 35986 ft 472 kts 56°
2026-05-07 19:12 44.55802 3.05704 35971 ft 472 kts 56°
2026-05-07 19:13 44.59469 3.13371 35987 ft 473 kts 56°
2026-05-07 19:13 44.63008 3.21162 35991 ft 474 kts 60°
2026-05-07 19:14 44.66211 3.29242 35990 ft 473 kts 62°
2026-05-07 19:14 44.69332 3.37386 35997 ft 473 kts 62°
2026-05-07 19:15 44.72521 3.45486 36000 ft 473 kts 61°
2026-05-07 19:15 44.75755 3.53552 36002 ft 473 kts 61°
2026-05-07 19:16 44.78980 3.61626 36002 ft 473 kts 61°
2026-05-07 19:16 44.82190 3.69719 36002 ft 473 kts 61°
2026-05-07 19:17 44.85384 3.77825 36002 ft 473 kts 61°
2026-05-07 19:17 44.88572 3.85942 36006 ft 474 kts 61°
2026-05-07 19:18 44.91766 3.94083 36005 ft 474 kts 61°
2026-05-07 19:18 44.94958 4.02229 36004 ft 474 kts 61°
2026-05-07 19:19 44.98142 4.10381 36005 ft 474 kts 61°
2026-05-07 19:19 45.01316 4.18544 36016 ft 474 kts 62°
2026-05-07 19:20 45.04482 4.26728 36014 ft 475 kts 61°
2026-05-07 19:20 45.07654 4.34928 36012 ft 475 kts 61°
2026-05-07 19:21 45.10822 4.43135 36022 ft 475 kts 61°
2026-05-07 19:21 45.13978 4.51350 36020 ft 475 kts 62°
2026-05-07 19:22 45.15556 4.55463 36276 ft 475 kts 62°
2026-05-07 19:22 45.17128 4.59579 36568 ft 474 kts 62°
2026-05-07 19:22 45.18695 4.63692 36801 ft 474 kts 62°
2026-05-07 19:22 45.20265 4.67807 36978 ft 475 kts 61°
2026-05-07 19:23 45.23415 4.76053 37009 ft 475 kts 61°
2026-05-07 19:23 45.26554 4.84300 37004 ft 475 kts 62°
2026-05-07 19:24 45.29677 4.92554 37010 ft 474 kts 62°
2026-05-07 19:24 45.32784 5.00799 37003 ft 473 kts 62°
2026-05-07 19:25 45.35880 5.09049 37005 ft 474 kts 62°
2026-05-07 19:25 45.38989 5.17321 37003 ft 474 kts 62°
2026-05-07 19:26 45.41573 5.24197 37001 ft 474 kts 62°
2026-05-07 19:26 45.44664 5.32480 37002 ft 474 kts 62°
2026-05-07 19:27 45.47787 5.40736 37002 ft 473 kts 57°
2026-05-07 19:27 45.51989 5.47855 36998 ft 470 kts 39°
2026-05-07 19:28 45.56881 5.54056 36995 ft 471 kts 40°
2026-05-07 19:28 45.61761 5.60291 36994 ft 471 kts 40°
2026-05-07 19:29 45.66633 5.66540 36977 ft 470 kts 40°
2026-05-07 19:29 45.71489 5.72785 36995 ft 470 kts 40°
2026-05-07 19:30 45.76353 5.79040 36997 ft 470 kts 40°
2026-05-07 19:30 45.81189 5.85244 36998 ft 470 kts 40°
2026-05-07 19:31 45.86048 5.91502 36988 ft 469 kts 40°
2026-05-07 19:31 45.90947 5.97841 37003 ft 470 kts 40°
2026-05-07 19:32 45.95754 6.04068 37001 ft 470 kts 40°
2026-05-07 19:32 46.00608 6.10363 37003 ft 470 kts 40°
2026-05-07 19:33 46.05452 6.16662 37001 ft 469 kts 40°
2026-05-07 19:33 46.10272 6.22997 37002 ft 469 kts 41°
2026-05-07 19:34 46.14955 6.29561 37003 ft 470 kts 43°
2026-05-07 19:34 46.19554 6.36251 37012 ft 470 kts 43°
2026-05-07 19:35 46.24171 6.42916 37005 ft 470 kts 43°
2026-05-07 19:35 46.28826 6.49555 37007 ft 470 kts 43°
2026-05-07 19:36 46.33479 6.56202 37011 ft 470 kts 43°
2026-05-07 19:36 46.38120 6.62867 37031 ft 470 kts 43°
2026-05-07 19:37 46.42755 6.69540 37023 ft 470 kts 43°
2026-05-07 19:37 46.47386 6.76232 37025 ft 470 kts 43°
2026-05-07 19:38 46.52016 6.82928 37029 ft 470 kts 43°
2026-05-07 19:38 46.56563 6.89757 37028 ft 472 kts 49°
2026-05-07 19:39 46.60693 6.97192 37032 ft 473 kts 49°
2026-05-07 19:39 46.64818 7.04650 37034 ft 473 kts 49°
2026-05-07 19:40 46.68942 7.12107 37030 ft 473 kts 49°
2026-05-07 19:40 46.73069 7.19572 37033 ft 473 kts 49°
2026-05-07 19:41 46.77190 7.27056 37030 ft 473 kts 49°
2026-05-07 19:41 46.81274 7.34494 37032 ft 473 kts 49°
2026-05-07 19:42 46.85386 7.42005 37027 ft 474 kts 49°
2026-05-07 19:42 46.89494 7.49532 37030 ft 474 kts 49°
2026-05-07 19:43 46.93577 7.57059 37062 ft 474 kts 49°
2026-05-07 19:43 46.97667 7.64606 37049 ft 473 kts 49°
2026-05-07 19:44 47.01744 7.72153 37051 ft 473 kts 49°
2026-05-07 19:44 47.05828 7.79713 37049 ft 473 kts 49°
2026-05-07 19:45 47.09902 7.87280 37039 ft 473 kts 50°
2026-05-07 19:45 47.13899 7.94934 37044 ft 472 kts 55°
2026-05-07 19:46 47.17384 8.03105 37051 ft 472 kts 56°
2026-05-07 19:46 47.20868 8.11272 37049 ft 472 kts 56°
2026-05-07 19:47 47.24356 8.19448 37049 ft 472 kts 56°
2026-05-07 19:47 47.27876 8.27594 37047 ft 470 kts 51°
2026-05-07 19:48 47.32452 8.34339 37044 ft 464 kts 32°
2026-05-07 19:48 47.38064 8.38854 37052 ft 459 kts 21°
2026-05-07 19:49 47.43832 8.42926 37054 ft 459 kts 22°
2026-05-07 19:49 47.49594 8.47018 37075 ft 459 kts 22°
2026-05-07 19:50 47.55342 8.51111 37057 ft 458 kts 22°
2026-05-07 19:50 47.61089 8.55202 37057 ft 458 kts 22°
2026-05-07 19:51 47.66832 8.59305 37058 ft 458 kts 22°
2026-05-07 19:51 47.72572 8.63415 37057 ft 458 kts 22°
2026-05-07 19:52 47.78304 8.67525 37065 ft 457 kts 22°
2026-05-07 19:52 47.84038 8.71645 37068 ft 458 kts 22°
2026-05-07 19:53 47.89727 8.75754 37079 ft 458 kts 22°
2026-05-07 19:53 47.95451 8.79896 37067 ft 457 kts 22°
2026-05-07 19:54 48.01177 8.84038 37067 ft 457 kts 22°
2026-05-07 19:54 48.06910 8.88204 36809 ft 460 kts 22°
2026-05-07 19:55 48.09782 8.90295 36564 ft 458 kts 22°
2026-05-07 19:55 48.12637 8.92378 36185 ft 454 kts 22°
2026-05-07 19:55 48.15506 8.94271 35639 ft 448 kts 15°
2026-05-07 19:55 48.18485 8.95489 35120 ft 440 kts
2026-05-07 19:56 48.21491 8.96065 34618 ft 434 kts
2026-05-07 19:56 48.24484 8.96518 34121 ft 430 kts
2026-05-07 19:56 48.27450 8.96966 33551 ft 427 kts
2026-05-07 19:56 48.30393 8.97410 32987 ft 424 kts
2026-05-07 19:57 48.33316 8.97857 32534 ft 419 kts
2026-05-07 19:57 48.36181 8.98301 32256 ft 409 kts
2026-05-07 19:57 48.39002 8.98734 31788 ft 405 kts
2026-05-07 19:57 48.41794 8.99155 31309 ft 402 kts
2026-05-07 19:58 48.44565 8.99571 30837 ft 398 kts
2026-05-07 19:58 48.47305 8.99983 30388 ft 395 kts
2026-05-07 19:58 48.50027 9.00394 29896 ft 391 kts
2026-05-07 19:58 48.52712 9.00805 29471 ft 385 kts
2026-05-07 19:59 48.55362 9.01213 29048 ft 380 kts
2026-05-07 19:59 48.57973 9.01614 28642 ft 374 kts
2026-05-07 19:59 48.60547 9.02009 28240 ft 369 kts
2026-05-07 19:59 48.63080 9.02405 27840 ft 364 kts
2026-05-07 20:00 48.65562 9.02892 27435 ft 361 kts
2026-05-07 20:00 48.68055 9.03476 27038 ft 357 kts
2026-05-07 20:00 48.70464 9.04083 26621 ft 354 kts
2026-05-07 20:00 48.72881 9.04700 26219 ft 352 kts
2026-05-07 20:01 48.75291 9.05308 25779 ft 350 kts
2026-05-07 20:01 48.77680 9.05901 25355 ft 348 kts
2026-05-07 20:01 48.80072 9.06482 24922 ft 346 kts
2026-05-07 20:01 48.82449 9.07048 24477 ft 345 kts
2026-05-07 20:02 48.84818 9.07607 24034 ft 345 kts
2026-05-07 20:02 48.87181 9.08170 23581 ft 344 kts
2026-05-07 20:02 48.89549 9.08698 23106 ft 342 kts
2026-05-07 20:02 48.91902 9.09093 22661 ft 339 kts
2026-05-07 20:03 48.94241 9.09411 22237 ft 336 kts
2026-05-07 20:03 48.96565 9.09700 21817 ft 334 kts
2026-05-07 20:03 48.98874 9.09987 21399 ft 332 kts
2026-05-07 20:03 49.01172 9.10283 20990 ft 331 kts
2026-05-07 20:04 49.03486 9.10594 20573 ft 337 kts
2026-05-07 20:04 49.05828 9.10918 20150 ft 338 kts
2026-05-07 20:04 49.08150 9.11247 19732 ft 337 kts
2026-05-07 20:04 49.10496 9.11582 19313 ft 336 kts
2026-05-07 20:05 49.12827 9.11919 18885 ft 336 kts
2026-05-07 20:05 49.15152 9.12256 18469 ft 336 kts
2026-05-07 20:05 49.17475 9.12591 18023 ft 335 kts
2026-05-07 20:05 49.19793 9.12922 17591 ft 334 kts
2026-05-07 20:06 49.22099 9.13252 17177 ft 332 kts
2026-05-07 20:06 49.24387 9.13580 16764 ft 331 kts
2026-05-07 20:06 49.26679 9.13912 16355 ft 330 kts
2026-05-07 20:06 49.28953 9.14358 15940 ft 330 kts 11°
2026-05-07 20:07 49.31191 9.15150 15482 ft 331 kts 12°
2026-05-07 20:07 49.33434 9.15947 15024 ft 332 kts 12°
2026-05-07 20:07 49.35684 9.16746 14569 ft 332 kts 12°
2026-05-07 20:07 49.37940 9.17546 14111 ft 333 kts 12°
2026-05-07 20:08 49.40188 9.18340 13783 ft 329 kts 12°
2026-05-07 20:08 49.42424 9.19128 13312 ft 329 kts 12°
2026-05-07 20:08 49.44644 9.19913 12943 ft 325 kts 12°
2026-05-07 20:08 49.46856 9.20370 12635 ft 317 kts 356°
2026-05-07 20:09 49.48985 9.19734 12382 ft 308 kts 337°
2026-05-07 20:09 49.50788 9.18082 12118 ft 299 kts 317°
2026-05-07 20:09 49.52097 9.15667 11859 ft 292 kts 298°
2026-05-07 20:10 49.53831 9.10075 11354 ft 288 kts 294°
2026-05-07 20:10 49.54668 9.07329 11104 ft 286 kts 294°
2026-05-07 20:10 49.55513 9.04561 10847 ft 285 kts 294°
2026-05-07 20:10 49.56355 9.01801 10611 ft 284 kts 294°
2026-05-07 20:11 49.57191 8.99063 10383 ft 283 kts 294°
2026-05-07 20:11 49.58031 8.96307 10136 ft 283 kts 294°
2026-05-07 20:11 49.58864 8.93571 9953 ft 282 kts 294°
2026-05-07 20:11 49.59696 8.90834 9815 ft 282 kts 294°
2026-05-07 20:12 49.60523 8.88102 9685 ft 281 kts 294°
2026-05-07 20:12 49.61348 8.85372 9551 ft 281 kts 294°
2026-05-07 20:12 49.62171 8.82653 9418 ft 280 kts 294°
2026-05-07 20:12 49.62994 8.79931 9278 ft 280 kts 294°
2026-05-07 20:13 49.63814 8.77217 9166 ft 279 kts 295°
2026-05-07 20:13 49.64634 8.74504 9030 ft 279 kts 294°
2026-05-07 20:13 49.65452 8.71790 8897 ft 279 kts 294°
2026-05-07 20:13 49.65993 8.69994 8811 ft 278 kts 294°
2026-05-07 20:14 49.66807 8.67294 8676 ft 277 kts 294°
2026-05-07 20:14 49.67621 8.64596 8547 ft 277 kts 294°
2026-05-07 20:14 49.68432 8.61899 8418 ft 276 kts 294°
2026-05-07 20:14 49.69240 8.59209 8287 ft 276 kts 294°
2026-05-07 20:15 49.70046 8.56526 8159 ft 275 kts 294°
2026-05-07 20:15 49.70849 8.53848 8030 ft 274 kts 294°
2026-05-07 20:15 49.71649 8.51178 7896 ft 274 kts 294°
2026-05-07 20:15 49.72447 8.48509 7776 ft 273 kts 294°
2026-05-07 20:16 49.73239 8.45848 7640 ft 272 kts 294°
2026-05-07 20:16 49.74030 8.43191 7517 ft 272 kts 294°
2026-05-07 20:16 49.74818 8.40539 7389 ft 271 kts 294°
2026-05-07 20:16 49.75605 8.37890 7261 ft 271 kts 294°
2026-05-07 20:17 49.76390 8.35248 7149 ft 270 kts 294°
2026-05-07 20:17 49.77174 8.32611 7020 ft 269 kts 294°
2026-05-07 20:17 49.77955 8.29975 6895 ft 269 kts 294°
2026-05-07 20:17 49.78732 8.27348 6769 ft 268 kts 294°
2026-05-07 20:18 49.79506 8.24724 6651 ft 268 kts 294°
2026-05-07 20:18 49.80277 8.22103 6531 ft 267 kts 294°
2026-05-07 20:18 49.81047 8.19486 6402 ft 267 kts 294°
2026-05-07 20:18 49.81816 8.16881 6269 ft 266 kts 294°
2026-05-07 20:19 49.82543 8.14242 6139 ft 267 kts 288°
2026-05-07 20:19 49.82905 8.11435 6013 ft 267 kts 274°
2026-05-07 20:19 49.82822 8.08566 5842 ft 266 kts 261°
2026-05-07 20:19 49.82336 8.05811 5391 ft 266 kts 253°
2026-05-07 20:20 49.82152 8.03018 5037 ft 260 kts 281°
2026-05-07 20:20 49.82885 8.00482 4991 ft 261 kts 310°
2026-05-07 20:20 49.84331 7.98818 4998 ft 261 kts 338°
2026-05-07 20:20 49.86050 7.97889 4998 ft 262 kts 343°
2026-05-07 20:21 49.87793 7.97073 5007 ft 262 kts 345°
2026-05-07 20:21 49.89590 7.96941 5003 ft 261 kts 15°
2026-05-07 20:21 49.91102 7.98433 5006 ft 263 kts 51°
2026-05-07 20:21 49.91953 8.00943 5014 ft 265 kts 69°
2026-05-07 20:22 49.92564 8.03648 5011 ft 266 kts 70°
2026-05-07 20:22 49.93188 8.06316 5007 ft 256 kts 69°
2026-05-07 20:22 49.93797 8.08806 5008 ft 238 kts 68°
2026-05-07 20:22 49.94363 8.11114 5015 ft 223 kts 68°
2026-05-07 20:23 49.94899 8.13306 5006 ft 212 kts 68°
2026-05-07 20:23 49.95407 8.15389 4930 ft 203 kts 68°
2026-05-07 20:23 49.95907 8.17439 4696 ft 203 kts 68°
2026-05-07 20:23 49.96408 8.19497 4423 ft 204 kts 68°
2026-05-07 20:24 49.96911 8.21566 4169 ft 203 kts 68°
2026-05-07 20:24 49.97401 8.23586 3886 ft 197 kts 68°
2026-05-07 20:24 49.97873 8.25530 3616 ft 191 kts 68°
2026-05-07 20:24 49.98335 8.27437 3361 ft 186 kts 68°
2026-05-07 20:25 49.98779 8.29271 3109 ft 176 kts 68°
2026-05-07 20:25 49.99196 8.30995 2875 ft 165 kts 68°
2026-05-07 20:25 49.99582 8.32590 2675 ft 152 kts 68°
2026-05-07 20:25 49.99942 8.34078 2478 ft 141 kts 69°
2026-05-07 20:26 50.00273 8.35450 2283 ft 135 kts 69°
2026-05-07 20:26 50.00600 8.36801 2099 ft 132 kts 69°
2026-05-07 20:26 50.00921 8.38131 1920 ft 131 kts 69°
2026-05-07 20:26 50.01239 8.39453 1741 ft 130 kts 68°
2026-05-07 20:27 50.01557 8.40768 1557 ft 130 kts 69°
2026-05-07 20:27 50.01874 8.42088 1381 ft 131 kts 69°
2026-05-07 20:27 50.02192 8.43410 1200 ft 131 kts 69°
2026-05-07 20:27 50.02512 8.44740 1018 ft 131 kts 69°
2026-05-07 20:28 50.02830 8.46059 840 ft 130 kts 69°
2026-05-07 20:28 50.03146 8.47371 681 ft 129 kts 69°
2026-05-07 20:28 50.03460 8.48681 501 ft 129 kts 69°
2026-05-07 20:28 50.03771 8.49982 325 ft 128 kts 70°
2026-05-07 20:29 50.04038 8.51101 326 ft 87 kts 70°
2026-05-07 20:29 50.04201 8.51777 333 ft 55 kts 69°
2026-05-07 20:29 50.04230 8.52223 341 ft 38 kts 102°
2026-05-07 20:29 50.04198 8.52515 347 ft 22 kts 98°
2026-05-07 20:30 50.04216 8.52742 359 ft 22 kts 69°
2026-05-07 20:30 50.04270 8.52964 360 ft 22 kts 71°
2026-05-07 20:30 50.04323 8.53187 360 ft 21 kts 69°
2026-05-07 20:30 50.04369 8.53382 370 ft 17 kts 70°
2026-05-07 20:31 50.04398 8.53550 375 ft 16 kts 83°
2026-05-07 20:31 50.04412 8.53735 375 ft 18 kts 84°
2026-05-07 20:31 50.04422 8.53929 375 ft 18 kts 85°
2026-05-07 20:31 50.04436 8.54128 375 ft 15 kts 83°
2026-05-07 20:32 50.04448 8.54303 375 ft 18 kts 85°
2026-05-07 20:32 50.04445 8.54525 368 ft 24 kts 104°
2026-05-07 20:32 50.04339 8.54748 362 ft 29 kts 146°
2026-05-07 20:32 50.04182 8.54845 358 ft 21 kts 160°
2026-05-07 20:33 50.04058 8.54917 355 ft 17 kts 159°
2026-05-07 20:33 50.04014 8.54982 359 ft 7 kts 96°
2026-05-07 20:33 50.04038 8.55100 359 ft 16 kts 69°
2026-05-07 20:33 50.04078 8.55269 353 ft 18 kts 69°
2026-05-07 20:34 50.04127 8.55471 354 ft 21 kts 69°
2026-05-07 20:34 50.04174 8.55667 360 ft 19 kts 69°
2026-05-07 20:34 50.04221 8.55863 358 ft 20 kts 69°
2026-05-07 20:34 50.04240 8.55942 355 ft 0 kts 70°
2026-05-07 20:35 50.04240 8.55943 355 ft 1 kts 70°
2026-05-07 20:35 50.04259 8.56021 360 ft 10 kts 70°
2026-05-07 20:35 50.04310 8.56076 357 ft 8 kts 355°
2026-05-07 20:35 50.04357 8.56048 362 ft 7 kts 339°
2026-05-07 20:36 50.04422 8.56033 358 ft 13 kts 25°
2026-05-07 20:36 50.04461 8.56152 360 ft 11 kts 70°
2026-05-07 20:36 50.04487 8.56259 360 ft 8 kts 69°
2026-05-07 20:36 50.04471 8.56316 358 ft 7 kts 180°
2026-05-07 20:37 50.04433 8.56328 358 ft 0 kts 166°